TimeEDT,TemperatureF,Dew PointF,Humidity,Sea Level PressureIn,VisibilityMPH,Wind Direction,Wind SpeedMPH,Gust SpeedMPH,PrecipitationIn,Events,Conditions,WindDirDegrees,DateUTC
12:53 AM,32.0,17.1,54,30.12,10.0,West,5.8,-,N/A,,Clear,260,2013-03-20 04:53:00
1:53 AM,30.9,18.0,59,30.11,10.0,Variable,6.9,-,N/A,,Clear,0,2013-03-20 05:53:00
2:53 AM,30.0,17.1,59,30.10,10.0,WSW,3.5,-,N/A,,Clear,250,2013-03-20 06:53:00
3:53 AM,28.0,17.1,63,30.08,10.0,WSW,3.5,-,N/A,,Clear,250,2013-03-20 07:53:00
4:53 AM,27.0,18.0,69,30.06,10.0,WNW,5.8,-,N/A,,Clear,290,2013-03-20 08:53:00
5:53 AM,27.0,18.0,69,30.06,10.0,West,9.2,-,N/A,,Clear,280,2013-03-20 09:53:00
6:53 AM,26.1,18.0,71,30.06,10.0,Variable,5.8,-,N/A,,Partly Cloudy,0,2013-03-20 10:53:00
7:53 AM,25.0,17.1,72,30.07,10.0,WNW,13.8,-,N/A,,Clear,290,2013-03-20 11:53:00
8:53 AM,26.1,18.0,71,30.08,10.0,WNW,9.2,-,N/A,,Mostly Cloudy,300,2013-03-20 12:53:00
9:49 AM,26.6,15.8,64,30.06,10.0,WNW,18.4,23.0,N/A,,Scattered Clouds,300,2013-03-20 13:49:00
9:53 AM,26.1,15.1,63,30.09,10.0,WNW,19.6,25.3,N/A,,Partly Cloudy,300,2013-03-20 13:53:00
10:53 AM,27.0,12.9,56,30.09,10.0,West,17.3,23.0,N/A,,Clear,280,2013-03-20 14:53:00
11:53 AM,28.0,14.0,56,30.10,10.0,WNW,17.3,24.2,N/A,,Scattered Clouds,300,2013-03-20 15:53:00
12:53 PM,28.0,12.9,53,30.09,10.0,West,15.0,25.3,N/A,,Mostly Cloudy,270,2013-03-20 16:53:00
1:53 PM,27.0,10.9,51,30.09,10.0,WNW,18.4,24.2,N/A,,Partly Cloudy,290,2013-03-20 17:53:00
2:53 PM,27.0,10.9,51,30.07,10.0,WNW,17.3,27.6,N/A,,Mostly Cloudy,300,2013-03-20 18:53:00
3:53 PM,27.0,10.0,49,30.05,10.0,WNW,20.7,29.9,N/A,,Mostly Cloudy,300,2013-03-20 19:53:00
4:53 PM,27.0,9.0,47,30.06,10.0,WNW,18.4,28.8,N/A,,Overcast,290,2013-03-20 20:53:00
5:53 PM,27.0,9.0,47,30.05,10.0,WNW,18.4,28.8,N/A,,Mostly Cloudy,290,2013-03-20 21:53:00
6:53 PM,27.0,9.0,47,30.05,10.0,WNW,15.0,24.2,N/A,,Overcast,290,2013-03-20 22:53:00
7:53 PM,26.1,8.1,47,30.06,10.0,WNW,18.4,26.5,N/A,,Overcast,290,2013-03-20 23:53:00
8:53 PM,25.0,9.0,51,30.05,10.0,WNW,13.8,-,N/A,,Partly Cloudy,290,2013-03-21 00:53:00
9:53 PM,24.1,10.0,55,30.06,10.0,NW,11.5,21.9,N/A,,Overcast,310,2013-03-21 01:53:00
10:53 PM,23.0,10.0,58,30.05,10.0,NW,12.7,-,N/A,,Partly Cloudy,310,2013-03-21 02:53:00
11:53 PM,21.9,12.0,66,30.05,10.0,WNW,10.4,-,N/A,,Scattered Clouds,300,2013-03-21 03:53:00